[[{"header":{"parameterUnit":"m.s-1","parameterCategory":1,"la1":30.2991,"la2":30.254,"lo1":-89.0895,"lo2":-89.0444,"dy":0.0017,"dx":0.0017,"nx":28,"ny":28,"refTime":"2024-06-09T03:00:00:Z","depth":0,"parameterNumber":2,"parameterNumberName":"U-component_of_WINDS"},"data":[0,0,0,0,0,0,0,0,0,0,0,0,0,0,0,0,0,0,0,0,0,0,0,0,0,0,0,0,0,0,0,0,0,0,0,0,0,0,0,0,0,0,0,0,0,0,0,0,0,0,0,0,0,0,0,0,0,0,3.7116,3.7118,0,3.7279,3.7281,3.7283,3.7279,3.7276,3.7274,3.7272,3.7444,3.745,3.7457,0,0,0,0,0,0,0,0,0,0,0,0,0,3.6806,3.6812,3.7116,3.7118,3.712,3.7279,3.7281,3.7283,3.7279,3.7276,3.7273,3.7271,3.7442,3.7449,3.7457,0,0,0,0,0,0,0,0,0,0,0,0,0,3.6952,3.6814,3.7115,3.7137,3.714,3.7278,3.7281,3.7284,3.7279,3.7276,3.7273,3.727,3.7439,3.7449,3.7459,3.7588,0,0,3.7489,3.7493,0,0,0,0,0,0,0,0,3.6944,3.6964,3.7131,3.7135,3.714,3.7255,3.7235,3.7386,3.728,3.7227,3.7272,3.7268,3.7384,3.7398,3.7436,3.7596,3.7603,3.749,3.7496,3.75,3.7503,0,0,0,0,0,0,0,3.6934,3.6957,3.718,3.7134,3.7139,3.714,3.7157,3.7263,3.7322,3.7231,3.7231,3.725,3.7386,3.7427,3.744,3.7606,3.749,3.7499,3.7505,3.7509,3.7882,3.7885,0,0,0,0,0,0,3.6918,3.6948,3.7175,3.7185,3.7031,3.7148,3.7167,3.7221,3.7321,3.7333,3.7253,3.725,3.7411,3.7429,3.7446,3.7605,3.75,3.751,3.7515,3.7878,3.7883,3.7887,0,0,0,0,0,0,3.6912,3.6939,3.7169,3.7067,3.7096,3.7157,3.7218,3.7226,3.7267,3.7338,3.7349,3.7284,3.7409,3.7432,3.7553,3.7611,3.7514,3.7523,3.7873,3.7879,3.7885,3.7923,0,0,0,0,0,0,3.6903,3.6936,3.6984,3.7068,3.7102,3.727,3.7221,3.7232,3.7284,3.7281,3.737,3.7381,3.7409,3.7538,3.7563,3.7623,3.7531,3.7868,3.7876,3.7883,3.7917,3.7929,3.794,0,0,0,0,0,3.6892,3.6989,3.6987,3.7014,3.7163,3.7274,3.7293,3.7321,3.7289,3.7339,3.7384,3.7378,3.7601,3.755,3.7578,3.7642,3.7865,3.7874,3.7882,3.7911,3.7927,3.794,0,0,0,0,0,0,3.6911,3.7,3.6999,3.7125,3.7192,3.7273,3.7336,3.7337,3.7415,3.7409,3.7442,3.7462,3.7583,3.7625,3.7567,3.7774,3.7729,3.7744,3.7742,3.7757,3.7768,3.7755,3.7539,0,0,0,0,0,3.693,3.7012,3.7086,3.7191,3.7224,3.7275,3.7324,3.734,3.7411,3.7439,3.7494,3.7564,3.765,3.7706,3.7789,3.7923,3.7943,3.7982,3.7993,3.8003,3.8015,3.8091,3.8109,3.7916,3.7916,3.7915,0,0,3.6971,3.7029,3.7079,3.7196,3.7249,3.7335,3.7298,3.7389,3.7453,3.7454,3.757,3.7613,3.7694,3.7822,3.7882,3.7861,3.8073,3.8014,3.8021,3.8028,3.8102,3.812,3.8136,3.7922,3.7921,3.792,0,0,3.7087,3.7139,3.7233,3.7288,3.7369,3.7402,3.7425,3.7506,3.7534,3.7652,3.7654,3.7733,3.7879,3.7937,3.7986,3.8128,3.8126,3.8154,3.8215,3.8289,3.8304,3.8318,3.8369,3.8387,3.8167,3.8167,3.8167,0,3.7127,3.7254,3.7281,3.7374,3.7426,3.743,3.7526,3.7579,3.7683,3.772,3.7696,3.7881,3.7936,3.8079,3.8114,3.8153,3.8181,3.8144,3.8299,3.8313,3.8327,3.8376,3.8395,3.817,3.8169,3.8169,3.8169,0,3.73,3.7388,3.7454,3.7554,3.7615,3.7708,3.7752,3.781,3.7822,3.7859,3.798,3.8046,3.8143,3.8179,3.8192,3.8324,3.8309,3.8292,3.8247,3.8347,3.8394,3.8413,3.8174,3.8173,3.8172,3.8171,0,0,3.7431,3.7547,3.757,3.7617,3.7708,3.7778,3.7873,3.7967,3.8017,3.809,3.8172,3.8297,3.8282,3.8338,3.8358,3.8422,3.8532,3.8397,3.84,3.842,3.8683,3.8695,3.8716,3.8531,3.8535,3.8538,3.8676,0,3.7557,3.7724,3.7753,3.79,3.7983,3.799,3.8073,3.814,3.8177,3.8255,3.8297,3.8386,3.8359,3.8393,3.8457,3.8504,3.8585,3.8495,3.8609,3.8612,3.8587,3.874,3.8753,3.888,3.8695,3.8698,3.87,0,3.7725,3.7802,3.7957,3.8039,3.8075,3.8149,3.8239,3.8312,3.8389,3.8412,3.8475,3.8488,3.859,3.8541,3.8683,3.8621,3.867,3.8701,3.8706,3.8717,3.8661,3.8756,3.8921,3.894,3.8729,3.8727,3.8725,0,3.7806,3.7949,3.806,3.81,3.8198,3.825,3.8294,3.8367,3.8422,3.8501,3.8538,3.8629,3.8678,3.8749,3.8787,3.8748,3.8926,3.888,3.8949,3.8948,3.8985,3.8982,3.9161,3.9018,3.9017,3.9017,3.9017,0,3.7943,3.8038,3.8098,3.8166,3.8273,3.8308,3.8413,3.8457,3.8522,3.86,3.8613,3.8687,3.8732,3.8814,3.8844,3.8957,3.898,3.9002,3.9009,3.9001,3.8998,3.9032,3.9024,3.9022,3.9021,3.902,3.9019,0,3.805,3.8094,3.8216,3.83,3.8323,3.8398,3.8471,3.8539,3.8577,3.8677,3.8702,3.8763,3.886,3.8905,3.9024,3.9045,3.9174,3.9175,3.9147,3.9149,3.9215,3.9208,3.9422,3.9451,3.9289,3.9291,3.9292,0,3.8134,3.8207,3.8299,3.8352,3.8397,3.8482,3.8539,3.8577,3.8636,3.8729,3.8787,3.8883,3.8962,3.9116,3.9172,3.9265,3.9268,3.9337,3.9282,3.9271,3.9269,3.9263,3.9271,3.9346,3.9347,3.9349,3.935,0,3.8279,3.8298,3.8378,3.8467,3.8534,3.8606,3.8677,3.872,3.877,3.8836,3.8934,3.8995,3.9118,3.9214,3.931,3.9357,3.9363,3.9367,3.9388,3.9379,3.936,3.9371,3.9173,3.9361,3.936,3.9359,3.9359,3.9358,3.8377,3.8443,3.8518,3.8608,3.8666,3.8732,3.88,3.8848,3.893,3.9031,3.905,3.9154,3.9232,3.9361,3.9412,3.9496,3.948,3.951,3.9517,3.9524,3.9527,3.9347,3.9514,3.9513,3.9513,3.9513,3.9513,0,3.8522,3.8572,3.8654,3.8753,3.8824,3.8823,3.8902,3.8962,3.9053,3.9125,3.9202,3.9316,3.941,3.9475,3.957,3.9625,3.963,3.9649,3.9645,3.9656,3.9536,3.9508,3.9644,3.9644,3.9643,3.9643,3.9643,3.9643,3.8606,3.8717,3.8746,3.8887,3.8936,3.9037,3.9083,3.9145,3.9202,3.9328,3.9406,3.9447,3.9516,3.9618,3.9705,3.9721,3.9756,3.9775,3.9792,3.9678,3.9664,3.9651,3.9625,3.9783,3.9783,3.9904,3.9906,3.9906]},{"header":{"parameterUnit":"m.s-1","parameterCategory":1,"la1":30.2991,"la2":30.254,"lo1":-89.0895,"lo2":-89.0444,"dy":0.0017,"dx":0.0017,"nx":28,"ny":28,"refTime":"2024-06-09T03:00:00:Z","depth":0,"parameterNumber":3,"parameterNumberName":"V-component_of_WINDS"},"data":[0,0,0,0,0,0,0,0,0,0,0,0,0,0,0,0,0,0,0,0,0,0,0,0,0,0,0,0,0,0,0,0,0,0,0,0,0,0,0,0,0,0,0,0,0,0,0,0,0,0,0,0,0,0,0,0,0,0,2.5641,2.5643,0,2.5774,2.5776,2.5777,2.5755,2.5752,2.575,2.5748,2.5881,2.5886,2.5892,0,0,0,0,0,0,0,0,0,0,0,0,0,2.5362,2.5368,2.5641,2.5643,2.5645,2.5774,2.5776,2.5777,2.5755,2.5752,2.5749,2.5747,2.5879,2.5885,2.5892,0,0,0,0,0,0,0,0,0,0,0,0,0,2.5488,2.5369,2.5641,2.5649,2.5651,2.5773,2.5776,2.5778,2.5756,2.5752,2.5749,2.5746,2.5876,2.5885,2.5893,2.6015,0,0,2.5919,2.5923,0,0,0,0,0,0,0,0,2.5481,2.5498,2.5646,2.5649,2.5651,2.5744,2.5726,2.5857,2.5757,2.5716,2.5748,2.5744,2.5838,2.5849,2.5882,2.6021,2.6027,2.592,2.5925,2.5929,2.5931,0,0,0,0,0,0,0,2.5472,2.5492,2.5694,2.5648,2.5651,2.5644,2.5658,2.5751,2.5794,2.5719,2.5718,2.5734,2.5838,2.5874,2.5885,2.6029,2.592,2.5927,2.5932,2.5936,2.627,2.6273,0,0,0,0,0,0,2.5462,2.5485,2.5689,2.5698,2.5556,2.5652,2.5668,2.5718,2.5793,2.5802,2.5737,2.5732,2.5861,2.5875,2.5889,2.6034,2.5929,2.5937,2.5942,2.6266,2.627,2.6275,0,0,0,0,0,0,2.5456,2.548,2.5684,2.5591,2.5617,2.566,2.5717,2.5722,2.5757,2.5807,2.5814,2.5765,2.5858,2.5877,2.5983,2.6038,2.594,2.5948,2.6261,2.6267,2.6272,2.6325,0,0,0,0,0,0,2.5448,2.5478,2.5527,2.5593,2.5622,2.5778,2.5721,2.5727,2.5773,2.5768,2.5835,2.5843,2.5857,2.597,2.5991,2.6048,2.5955,2.6257,2.6264,2.6271,2.6319,2.6332,2.6343,0,0,0,0,0,2.5438,2.5536,2.5529,2.5554,2.5683,2.5781,2.5797,2.5813,2.5777,2.5825,2.5856,2.5841,2.6029,2.5981,2.6005,2.6065,2.6253,2.6262,2.627,2.6313,2.6329,2.6343,0,0,0,0,0,0,2.5476,2.5545,2.5538,2.5661,2.5715,2.5777,2.5838,2.583,2.5895,2.5888,2.5903,2.5918,2.6025,2.6056,2.6002,2.6184,2.6136,2.6149,2.616,2.6176,2.6188,2.6178,2.5962,0,0,0,0,0,2.5498,2.5573,2.563,2.5732,2.576,2.5794,2.5837,2.5844,2.5901,2.5923,2.5962,2.6016,2.6087,2.6133,2.6202,2.6323,2.6335,2.6375,2.6388,2.6398,2.6409,2.6471,2.6488,2.6302,2.6302,2.6302,0,0,2.5545,2.5593,2.5639,2.5741,2.5784,2.5859,2.5814,2.5896,2.5951,2.5935,2.6037,2.6067,2.6128,2.6241,2.6293,2.627,2.6463,2.6408,2.6416,2.6422,2.6482,2.6499,2.6515,2.6308,2.6307,2.6306,0,0,2.5669,2.5714,2.5803,2.5847,2.5912,2.5934,2.5955,2.6017,2.6037,2.6139,2.6128,2.6193,2.6316,2.6358,2.6396,2.6533,2.652,2.6555,2.6618,2.6679,2.6693,2.6706,2.6752,2.6769,2.6566,2.6566,2.6566,0,2.572,2.5834,2.5849,2.5932,2.5975,2.5965,2.6053,2.6094,2.6178,2.6207,2.6181,2.6332,2.6373,2.6494,2.6527,2.6559,2.6581,2.6547,2.669,2.6704,2.6716,2.6759,2.6777,2.6569,2.6569,2.6569,2.6568,0,2.589,2.597,2.6033,2.6114,2.6165,2.625,2.6276,2.6325,2.6327,2.6351,2.6453,2.6501,2.6577,2.6606,2.6609,2.6727,2.671,2.6687,2.6638,2.6737,2.6778,2.6795,2.6574,2.6573,2.6572,2.6571,0,0,2.6043,2.613,2.6152,2.6188,2.6258,2.6318,2.6401,2.6476,2.6516,2.6574,2.6641,2.6744,2.6722,2.6765,2.6772,2.6826,2.6926,2.6795,2.6797,2.6815,2.7055,2.707,2.7089,2.6919,2.6922,2.6925,2.7048,0,2.6171,2.6319,2.6334,2.6465,2.6536,2.6526,2.6598,2.6647,2.6671,2.6733,2.6758,2.6829,2.6797,2.6822,2.6875,2.6903,2.6974,2.6894,2.6979,2.6982,2.6962,2.7111,2.7129,2.7244,2.7065,2.7068,2.707,0,2.6341,2.6403,2.6542,2.6599,2.6629,2.6694,2.6761,2.6822,2.6876,2.6889,2.6935,2.6935,2.7017,2.6966,2.7077,2.7023,2.7058,2.7077,2.7082,2.7089,2.7031,2.712,2.7281,2.7297,2.7096,2.7094,2.7092,0,2.6434,2.6553,2.665,2.6681,2.675,2.6795,2.6826,2.6877,2.692,2.6979,2.7006,2.7073,2.711,2.716,2.7176,2.7138,2.7286,2.7237,2.7297,2.7296,2.7328,2.7325,2.7494,2.7354,2.7354,2.7353,2.7353,0,2.6575,2.6659,2.6692,2.6752,2.6845,2.686,2.6951,2.6979,2.7024,2.7087,2.7082,2.7141,2.7159,2.722,2.7234,2.7322,2.7339,2.735,2.7352,2.7349,2.7347,2.7371,2.7363,2.7358,2.7357,2.7356,2.7355,0,2.6695,2.6721,2.6825,2.6882,2.6898,2.6964,2.7011,2.7067,2.7089,2.7168,2.7188,2.7221,2.7293,2.7314,2.74,2.7408,2.7511,2.7507,2.7493,2.7493,2.755,2.7543,2.7738,2.7763,2.7609,2.761,2.7612,0,2.6782,2.6846,2.691,2.6952,2.6984,2.7053,2.7096,2.7112,2.7157,2.7222,2.7269,2.734,2.7397,2.7511,2.7541,2.7606,2.7602,2.7666,2.7611,2.7605,2.7599,2.7594,2.7599,2.7675,2.7677,2.7678,2.7679,0,2.6932,2.6941,2.7005,2.7072,2.7124,2.7177,2.7229,2.7263,2.7286,2.7336,2.7409,2.7454,2.754,2.7609,2.7674,2.7703,2.7694,2.7696,2.7713,2.771,2.7698,2.7702,2.7518,2.7692,2.769,2.7689,2.7689,2.7688,2.7037,2.7092,2.7144,2.7214,2.7254,2.7302,2.7356,2.7385,2.7446,2.7519,2.7524,2.7602,2.7651,2.7737,2.777,2.7829,2.781,2.7835,2.7841,2.7846,2.7849,2.769,2.7841,2.7841,2.7841,2.784,2.784,0,2.7184,2.7217,2.7281,2.7353,2.7407,2.7395,2.745,2.7495,2.7565,2.7612,2.7668,2.775,2.7816,2.7851,2.7916,2.7956,2.7953,2.7973,2.7969,2.7975,2.7864,2.7842,2.7974,2.7974,2.7973,2.7973,2.7973,2.7973,2.7267,2.736,2.7374,2.7485,2.7517,2.7594,2.7626,2.7668,2.7706,2.7798,2.7853,2.7876,2.7917,2.7984,2.8043,2.8051,2.8074,2.8095,2.8101,2.7997,2.7983,2.797,2.7949,2.8101,2.8101,2.8206,2.8207,2.8208]}]]